Weather History for HETB - January, 2013

Change the Weather History Date:

Sunday, January 6, 2013

  Actual Average Record
Temperature  
Mean Temperature 48 °F -  
Max Temperature 55 °F - - ()
Min Temperature 41 °F - - ()
Degree Days  
Heating Degree Days 17    
Moisture  
Dew Point 33 °F    
Average Humidity 55    
Maximum Humidity 81    
Minimum Humidity 38    
Precipitation  
Precipitation 0.00 in - - ()
Sea Level Pressure  
Sea Level Pressure 29.93 in    
Wind  
Wind Speed 5 mph ()    
Max Wind Speed 15 mph    
Max Gust Speed -    
Visibility 6.2 miles    
Events      
T = Trace of Precipitation, MM = Missing Value Source: Averaged Metar Reports

Daily Weather History Graph

Daily Weather History Graph

Search for Another Location

Airport or City:

Trip Planner

Search our weather history database for the weather conditions in past years. The results will help you decide how hot, cold, wet, or windy it might be!

Date:

Astronomy

Jan. 06, 2013 Rise Set
Actual Time 6:36 AM EET 4:56 PM EET
Civil Twilight 6:10 AM EET 5:22 PM EET
Nautical Twilight 5:41 AM EET 5:52 PM EET
Astronomical Twilight 5:12 AM EET 6:21 PM EET
Moon 12:39 AM EET (1/6) 12:00 PM EET (1/6)
Length of Visible Light 11h 12m
Length of Day
10h 20m
Last Quarter, 36% of the Moon is Illuminated
Jan 6
Last Quarter
Jan 11
New
Jan 19
First Quarter
Jan 27
Full
Feb 3
Last Quarter

Hourly Weather History & Observations

Time (EET) Temp. Windchill Dew Point Humidity Pressure Visibility Wind Dir Wind Speed Gust Speed Precip Events Conditions
12:00 AM 48.2 °F - 35.6 °F 62% 29.98 in - Calm Calm - N/A   Clear
1:00 AM 44.6 °F - 33.8 °F 66% 29.95 in - Calm Calm - N/A   Clear
2:00 AM 42.8 °F - 33.8 °F 70% 29.95 in - Calm Calm - N/A   Clear
3:00 AM 41.0 °F - 35.6 °F 81% 29.95 in - Calm Calm - N/A   Clear
4:00 AM 41.0 °F - 35.6 °F 81% 29.95 in - Calm Calm - N/A   Clear
5:00 AM 44.6 °F 38.4 °F 35.6 °F 71% 29.92 in - WSW 12.7 mph - N/A   Clear
6:00 AM 44.6 °F 39.7 °F 35.6 °F 71% 29.95 in - SW 9.2 mph - N/A   Clear
7:00 AM 44.6 °F - 35.6 °F 71% 29.98 in - SW 2.3 mph - N/A   Clear
8:00 AM 50.0 °F - 35.6 °F 58% 29.98 in - SW 5.8 mph - N/A   Clear
9:00 AM 50.0 °F - 35.6 °F 58% 29.98 in - SW 5.8 mph - N/A   Clear
10:00 AM 51.8 °F - 37.4 °F 58% 30.01 in 6.2 mi SW 6.9 mph - N/A   Scattered Clouds
11:00 AM 53.6 °F - 30.2 °F 41% 29.98 in 6.2 mi WSW 13.8 mph - N/A   Scattered Clouds
12:00 PM 55.4 °F - 30.2 °F 38% 29.98 in 6.2 mi WSW 11.5 mph - N/A   Scattered Clouds
1:00 PM 55.4 °F - 30.2 °F 38% 29.92 in 6.2 mi WSW 11.5 mph - N/A   Scattered Clouds
2:00 PM 55.4 °F - 30.2 °F 38% 29.89 in 6.2 mi SW 10.4 mph - N/A   Mostly Cloudy
3:00 PM 55.4 °F - 33.8 °F 44% 29.89 in 6.2 mi WSW 15.0 mph - N/A   Mostly Cloudy
4:00 PM 55.4 °F - 33.8 °F 44% 29.89 in 6.2 mi WSW 13.8 mph - N/A   Mostly Cloudy
5:00 PM 53.6 °F - 32.0 °F 44% 29.89 in 6.2 mi WSW 10.4 mph - N/A   Scattered Clouds
6:00 PM 51.8 °F - 33.8 °F 50% 29.89 in 6.2 mi WSW 10.4 mph - N/A   Scattered Clouds
7:00 PM 50.0 °F - 30.2 °F 47% 29.89 in 6.2 mi Calm Calm - N/A   Scattered Clouds
8:00 PM 50.0 °F - 32.0 °F 50% 29.89 in 6.2 mi South 4.6 mph - N/A   Partly Cloudy
9:00 PM 50.0 °F - 30.2 °F 47% 29.89 in 6.2 mi South 2.3 mph - N/A   Partly Cloudy
11:00 PM 51.8 °F - 32.0 °F 47% 29.89 in 6.2 mi South 8.1 mph - N/A   Partly Cloudy